Regional Weather Roundup
Issued by NWS

Home | Current Version | Previous Version | Graphics & Text | Print | Product List | Glossary On
Versions: 1 2 3 4 5 6 7 8 9 10 11 12 13 14 15 16 17 18 19 20 21 22 23 24 25 26 27 28 29 30 31 32 33 34 35 36 37 38 39 40 41 42 43 44 45 46 47 48 49 50
000
ASUS43 KMKX 120921
RWRWI

WISCONSIN REGIONAL WEATHER ROUNDUP
NATIONAL WEATHER SERVICE MILWAUKEE/SULLIVAN WI
400 AM CDT SAT JUL 12 2014

NOTE: "FAIR" INDICATES FEW OR NO CLOUDS BELOW 12,000 FEET WITH NO
SIGNIFICANT WEATHER AND/OR OBSTRUCTIONS TO VISIBILITY.

WIZ001-002-006>008-014>016-023>028-121000-
NORTHWEST WISCONSIN

CITY           SKY/WX    TMP DP  RH WIND       PRES   REMARKS
SUPERIOR ARPT  FOG       63  63 100 CALM      29.96S VSB 1/4
ASHLAND        MOCLDY    66  64  93 SW6       29.97S
HAYWARD        CLOUDY    63  62  97 CALM      30.00R FOG
SIREN          MOCLDY    66  65  97 CALM      29.98S FOG
RICE LAKE      FOG       63  61  95 CALM      30.01S VSB<1/4
LADYSMITH      MOCLDY    65  64  95 SE3       30.02S
EAU CLAIRE     PTCLDY    67  66  97 S5        29.99S
MENOMONIE      PTSUNNY   68  66  95 CALM      30.00S
NEW RICHMOND   PTCLDY    66  65  99 S5        30.00R FOG
OSCEOLA        MOCLDY    67  67 100 E3        30.01S
$$

WIZ003>005-009-010-017-018-121000-
NORTH CENTRAL WISCONSIN

CITY           SKY/WX    TMP DP  RH WIND       PRES   REMARKS
WOODRUFF       PTCLDY    62  60  91 CALM      30.01F
RHINELANDER    PTCLDY    65  62  90 SW6       30.03F
EAGLE RIVER    PTCLDY    62  61  97 SW5       30.01F
LAND O LAKES   CLOUDY    66  63  89 SW3       30.02S
PHILLIPS       CLOUDY    64  64  97 CALM      30.01F
TOMAHAWK       CLOUDY    64  61  90 CALM      30.03F
MEDFORD        CLOUDY    65  63  94 CALM      30.02S
MERRILL        CLOUDY    64  63  96 CALM      30.02F
$$

WIZ029-030-035-036-043>047-121000-
CENTRAL WISCONSIN

CITY           SKY/WX    TMP DP  RH WIND       PRES   REMARKS
WAUSAU         CLOUDY    66  62  87 SW5       30.01S
MOSINEE        MOCLDY    63  63 100 CALM      30.03F
MARSHFIELD     MOCLDY    65  63  93 CALM      30.01F
STEVENS POINT  PTCLDY    64  59  85 CALM      30.02F
WAUPACA        PTCLDY    63  60  91 CALM      30.02F
WAUTOMA        CLEAR     60  59  97 CALM      30.02F
WISC RAPIDS    CLOUDY    68  62  81 CALM      30.02F
CAMP DOUGLAS   PTCLDY    64  64 100 SE1       30.01F
$$

WIZ011>013-019>022-031-037>040-048>050-121000-
NORTHEAST WISCONSIN

CITY           SKY/WX    TMP DP  RH WIND       PRES   REMARKS
ANTIGO         CLOUDY    63  60  91 SW3       30.04S
STURGEON BAY   CLOUDY    66  55  68 S8        30.02F
GREEN BAY      CLOUDY    66  59  78 S5        30.02F
MANITOWOC      CLEAR     60  55  83 CALM      30.04F
APPLETON       MOCLDY    63  57  82 S3        30.03F
CLINTONVILLE   MOCLDY    64  59  82 CALM      30.03R
OSHKOSH        CLEAR     66  60  81 S6        30.02F
$$

WIZ032>034-041-042-053>061-121000-
SOUTHWEST WISCONSIN

CITY           SKY/WX    TMP DP  RH WIND       PRES   REMARKS
LA CROSSE      CLOUDY    71  65  81 E5        30.00S
SPARTA         MOCLDY    63  62  95 CALM      30.03R
VIROQUA        CLOUDY    68  67  97 CALM      30.03S
BOSCOBEL       MOCLDY    69  65  86 CALM      30.00F
PRAIRIE DU CHI MOCLDY    69  65  88 CALM      30.00F
PLATTEVILLE    FAIR      68  65  89 E5        30.02F
$$

WIZ056-057-062-063-064-067-068-121000-
SOUTH CENTRAL WISCONSIN

CITY           SKY/WX    TMP DP  RH WIND       PRES   REMARKS
BARABOO/DELLS  CLOUDY    68  62  79 CALM      30.02F
LONE ROCK      CLOUDY    73  66  78 E3        30.01F
WATERTOWN      CLOUDY    67  61  82 CALM      30.03F
MADISON        CLOUDY    71  62  73 S8        30.01F
MIDDLETON      CLOUDY    71  62  71 CALM      30.02F
MONROE         CLOUDY    68  63  83 S6        30.03S
JANESVILLE     MOCLDY    70  61  73 SE5       30.02F
$$

WIZ051-052-058>065-066-070>072-121000-
SOUTHEAST WISCONSIN

CITY           SKY/WX    TMP DP  RH WIND       PRES   REMARKS
MILWAUKEE      CLOUDY    71  59  65 S7        30.04F
WAUKESHA       CLOUDY    66  57  72 S6        30.05F
MILWAUKEE/TIMM CLEAR     68  55  64 S3        30.05F
RACINE         CLOUDY    70  60  70 S6        30.06F
BURLINGTON     MOCLDY    67  60  77 CALM      30.04F
KENOSHA        MOCLDY    70  61  73 S6        30.05F
FOND DU LAC    MOCLDY    65  60  84 S5        30.03F
SHEBOYGAN      CLOUDY    63  58  83 S3        30.04F
WEST BEND      PTCLDY    64  55  72 CALM      30.04F
JUNEAU         CLOUDY    68  46  45 S5        30.04F
$$

LSZ147-162-121000-
LAKE SUPERIOR

STATION/POSITION TIME  TEMP    WIND        PRES    WAVE
                       AIR SEA DIR/SP/G            HT/PER
                 (UTC) (F)     (DEG/KT/KT) (MB)    (FT/S)
W MID LAKE BUOY  0850   49 38  240/ 10/ 10 1013.8F   1
PORT WING        0840   59      CALM  /  1 1014.6S
SAXON HARBOR     0800          210/  5/ 10 1014.6F
$$

LMZ867-665-643>646-121000-
LAKE MICHIGAN

STATION/POSITION TIME  TEMP    WIND        PRES    WAVE
                       AIR SEA DIR/SP/G            HT/PER
                 (UTC) (F)     (DEG/KT/KT) (MB)    (FT/S)
N MID LAKE BUOY  0850   56 53  200/ 14/ 14 1016.0F   2/ 4
NORTHPORT PIER   0800   63     150/  6/  9 1016.6F
KEWAUNEE LAKESHO 0900   54     180/  4/  7 1017.5F
SHEBOYGAN LAKESH 0900   63     190/  7/  8 1017.3F
PORT WASHINGTON  0800   56      CALM  /  2 1018.3F
MILWAUKEE LAKESH 0900   60      40/  1/  3   N/A
S MID LAKE BUOY  0850   64 59  160/  8/ 10 1018.2F   0
KENOSHA   LAKESH 0900   68     180/  7/  7   N/A
$$

TC  - TEMPERATURE IN CELSIUS
VSB - VISIBILITY IN STATUTE MILES
WCI - WIND CHILL INDEX
HX  - HEAT INDEX




USA.gov is the U.S. government's official web portal to all federal, state and local government web resources and services.